DW9142 Weather Reports


time (UTC)temp
C
wind
direction
speed
KPH
gust
KPH
rain 1hr
cm
rain 24hr
cm
rain mn
cm
humidity
%
barometer
mb
20260503190057 16 0.0 0.0 0.00 0.00 0.00 33 1012.4
20260503184611 15 0.0 0.0 0.00 0.00 0.00 30 1012.5
20260503183040 15 0.0 0.0 0.00 0.00 0.00 34 1012.7
20260503181527 15 0.0 0.0 0.00 0.00 0.00 32 1012.8
20260503180012 15 0.0 0.0 0.00 0.00 0.00 34 1012.8
20260503174622 13 0.0 0.0 0.00 0.00 0.00 36 1013.0
20260503173040 13 0.0 0.0 0.00 0.00 0.00 39 1013.0
20260503171536 13 0.0 0.0 0.00 0.00 0.00 38 1012.9
20260503100106 7 0.0 0.0 0.00 0.00 0.00 58 1011.7
20260503081558 6 0.0 0.0 0.00 0.00 0.00 66 1010.9
20260503071615 7 0.0 0.0 0.00 0.00 0.00 59 1010.8
20260503070113 7 0.0 0.0 0.00 0.00 0.00 60 1010.8
20260503054554 9 0.0 0.0 0.00 0.00 0.00 52 1011.0
20260503053037 9 0.0 0.0 0.00 0.00 0.00 53 1011.2
20260503051516 9 0.0 0.0 0.00 0.00 0.00 53 1011.2
20260503050012 9 0.0 0.0 0.00 0.00 0.00 52 1011.3
20260503044550 9 0.0 0.0 0.00 0.00 0.00 52 1011.5
20260503043048 10 0.0 0.0 0.00 0.00 0.00 51 1011.5
20260503041530 10 0.0 0.0 0.00 0.00 0.00 52 1011.4
20260503040020 10 0.0 0.0 0.00 0.00 0.00 50 1011.6
20260503034601 10 0.0 0.0 0.00 0.00 0.00 51 1011.5
20260503033100 10 0.0 0.0 0.00 0.00 0.00 50 1011.4
20260503031538 10 0.0 0.0 0.00 0.00 0.00 52 1011.4
20260503030034 10 0.0 0.0 0.00 0.00 0.00 52 1011.4
20260503024507 10 0.0 0.0 0.00 0.00 0.00 49 1011.5
20260503023002 11 0.0 0.0 0.00 0.00 0.00 53 1011.4
20260503021541 11 0.0 0.0 0.00 0.00 0.00 47 1011.4
20260503020043 11 0.0 0.0 0.00 0.00 0.00 46 1011.4
20260503014522 11 0.0 0.0 0.00 0.00 0.00 46 1011.3
20260503013029 11 0.0 0.0 0.00 0.00 0.00 46 1011.4
20260503011513 12 0.0 0.0 0.00 0.00 0.00 46 1011.3
20260503010009 12 0.0 0.0 0.00 0.00 0.00 44 1011.3
20260503004505 12 0.0 0.0 0.00 0.00 0.00 44 1011.0
20260503003102 12 0.0 0.0 0.00 0.00 0.00 46 1010.8
20260503001556 12 0.0 0.0 0.00 0.00 0.00 44 1010.7
20260503000051 13 0.0 0.0 0.00 0.00 0.00 42 1010.6
20260502234534 13 0.0 0.0 0.00 0.00 0.00 41 1010.6
20260502233026 13 0.0 0.0 0.00 0.00 0.00 39 1010.4
20260502231504 13 0.0 0.0 0.00 0.00 0.00 42 1010.6
20260502224540 14 0.0 0.0 0.00 0.00 0.00 37 1010.4
20260502223039 14 0.0 0.0 0.00 0.00 0.00 43 1010.2
20260502221514 14 0.0 0.0 0.00 0.00 0.00 41 1010.2
20260502220013 15 0.0 0.0 0.00 0.00 0.00 44 1010.2
20260502214550 15 0.0 0.0 0.00 0.00 0.00 39 1010.4
20260502213048 15 0.0 0.0 0.00 0.00 0.00 41 1010.3
20260502211523 15 0.0 0.0 0.00 0.00 0.00 37 1010.1
20260502210017 16 0.0 0.0 0.00 0.00 0.00 34 1009.9
20260502204603 16 0.0 0.0 0.00 0.00 0.00 36 1009.9
20260502203117 15 0.0 0.0 0.00 0.00 0.00 38 1010.2
20260502201537 16 0.0 0.0 0.00 0.00 0.00 39 1010.2
20260502200026 17 0.0 0.0 0.00 0.00 0.00 35 1010.4
20260502194504 16 0.0 0.0 0.00 0.00 0.00 37 1010.5
20260502193119 17 0.0 0.0 0.00 0.00 0.00 34 1010.7
20260502191540 17 0.0 0.0 0.00 0.00 0.00 33 1011.0